Location: Tel Aviv
(32.0670°N, 34.7670°E)
Time: 02:14:53
(UTC+02:00)

Envisat - Pass Details

Date: 02 December 2021
Orbit: 764 x 766 km, 98.2° (Epoch: 26 January)

Event Time Altitude Azimuth Distance (km) Brightness Sun altitude
Rises 05:29:12 0° 357° (N) 3,236 6.0 -11.7°
Reaches altitude 10° 05:31:50 10° 345° (NNW) 2,306 5.2 -11.2°
Maximum altitude 05:35:58 26° 290° (WNW) 1,488 3.9 -10.3°
Drops below altitude 10° 05:40:04 10° 236° (SW) 2,295 5.1 -9.5°
Sets 05:42:42 0° 223° (SW) 3,217 6.0 -9.0°
